Location: Dehesa de la Cepeda
(40.6574°N, 4.3013°W)
Time: 02:58:24
(UTC+00:00)

Courier 1B - Pass Details

Date: 07 August 2021
Orbit: 963 x 1209 km, 28.3° (Epoch: 17 September)

Event Time Altitude Azimuth Distance (km) Brightness Sun altitude
Rises 20:48:31 0° 260° (W) 4,104 11.4 -14.5°
Reaches altitude 10° 20:52:01 10° 247° (WSW) 3,142 10.5 -15.1°
Maximum altitude 20:57:54 23° 198° (SSW) 2,276 9.2 -15.9°
Enters shadow 21:01:34 17° 162° (SSE) 2,627 9.3 -16.5°
Drops below altitude 10° 21:03:42 10° 149° (SSE) 3,088 - -16.8°
Sets 21:07:07 0° 135° (SE) 4,018 - -17.3°
